Time,TemperatureF,DewpointF,PressureIn,WindDirection,WindDirectionDegrees,WindSpeedMPH,WindSpeedGustMPH,Humidity,HourlyPrecipIn,Conditions,Clouds,dailyrainin,SoftwareType,DateUTC
2013-02-28 00:00:00,49.0,34.9,29.64,North,360,1.0,2.0,58,0.00,,,0.00,Wunderground v.1.15,2013-02-28 05:00:00,
2013-02-28 00:04:00,49.0,34.9,29.63,North,360,2.0,2.0,58,0.00,,,0.00,Wunderground v.1.15,2013-02-28 05:04:00,
2013-02-28 00:08:00,49.0,34.9,29.64,North,360,1.0,2.0,58,0.00,,,0.00,Wunderground v.1.15,2013-02-28 05:08:00,
2013-02-28 00:10:00,49.0,34.9,29.64,North,360,1.0,1.0,58,0.00,,,0.00,Wunderground v.1.15,2013-02-28 05:10:00,
2013-02-28 00:14:00,49.1,34.9,29.64,North,360,1.0,2.0,58,0.00,,,0.00,Wunderground v.1.15,2013-02-28 05:14:00,
2013-02-28 00:16:00,49.1,34.9,29.64,North,360,1.0,2.0,58,0.00,,,0.00,Wunderground v.1.15,2013-02-28 05:16:00,
2013-02-28 00:18:00,49.2,35.0,29.63,North,360,1.0,2.0,58,0.00,,,0.00,Wunderground v.1.15,2013-02-28 05:18:00,
2013-02-28 00:20:00,49.3,36.0,29.63,North,360,2.0,2.0,60,0.00,,,0.00,Wunderground v.1.15,2013-02-28 05:20:00,
2013-02-28 00:24:00,49.3,34.3,29.63,North,360,2.0,3.0,56,0.00,,,0.00,Wunderground v.1.15,2013-02-28 05:24:00,
2013-02-28 00:30:00,49.3,34.7,29.64,North,360,3.0,4.0,57,0.00,,,0.00,Wunderground v.1.15,2013-02-28 05:30:00,
2013-02-28 00:36:00,49.2,35.0,29.64,North,360,3.0,4.0,58,0.00,,,0.00,Wunderground v.1.15,2013-02-28 05:36:00,
2013-02-28 00:38:00,49.2,35.0,29.64,North,360,3.0,4.0,58,0.00,,,0.00,Wunderground v.1.15,2013-02-28 05:38:00,
2013-02-28 00:40:00,49.2,35.0,29.64,North,360,3.0,3.0,58,0.00,,,0.00,Wunderground v.1.15,2013-02-28 05:40:00,
2013-02-28 00:42:00,49.2,35.0,29.64,North,360,2.0,3.0,58,0.00,,,0.00,Wunderground v.1.15,2013-02-28 05:42:00,
2013-02-28 00:44:00,49.1,35.4,29.64,North,360,2.0,4.0,59,0.00,,,0.00,Wunderground v.1.15,2013-02-28 05:44:00,
2013-02-28 00:46:00,49.1,35.8,29.64,North,360,2.0,4.0,60,0.00,,,0.00,Wunderground v.1.15,2013-02-28 05:46:00,
2013-02-28 00:48:00,49.0,35.7,29.64,North,360,2.0,5.0,60,0.00,,,0.00,Wunderground v.1.15,2013-02-28 05:48:00,
2013-02-28 00:50:00,48.9,35.6,29.64,North,360,2.0,2.0,60,0.00,,,0.00,Wunderground v.1.15,2013-02-28 05:50:00,
2013-02-28 00:56:00,48.7,35.4,29.64,North,360,2.0,3.0,60,0.00,,,0.00,Wunderground v.1.15,2013-02-28 05:56:00,
2013-02-28 00:58:00,48.6,35.7,29.64,North,360,2.0,3.0,61,0.00,,,0.00,Wunderground v.1.15,2013-02-28 05:58:00,
2013-02-28 01:00:00,48.6,35.7,29.64,North,360,1.0,2.0,61,0.00,,,0.00,Wunderground v.1.15,2013-02-28 06:00:00,
2013-02-28 01:04:00,48.6,35.7,29.64,North,360,1.0,2.0,61,0.00,,,0.00,Wunderground v.1.15,2013-02-28 06:04:00,
2013-02-28 01:08:00,48.6,35.7,29.64,North,360,1.0,2.0,61,0.00,,,0.00,Wunderground v.1.15,2013-02-28 06:08:00,
2013-02-28 01:10:00,48.6,35.7,29.64,North,360,1.0,1.0,61,0.00,,,0.00,Wunderground v.1.15,2013-02-28 06:10:00,
2013-02-28 01:14:00,48.6,35.7,29.64,North,360,0.0,1.0,61,0.00,,,0.00,Wunderground v.1.15,2013-02-28 06:14:00,
2013-02-28 01:16:00,48.6,35.7,29.63,North,360,0.0,1.0,61,0.00,,,0.00,Wunderground v.1.15,2013-02-28 06:16:00,
2013-02-28 01:22:00,48.7,35.8,29.64,North,360,0.0,2.0,61,0.00,,,0.00,Wunderground v.1.15,2013-02-28 06:22:00,
2013-02-28 01:28:00,48.8,35.5,29.64,North,360,2.0,5.0,60,0.00,,,0.00,Wunderground v.1.15,2013-02-28 06:28:00,
2013-02-28 01:30:00,48.9,35.6,29.64,North,360,3.0,3.0,60,0.00,,,0.00,Wunderground v.1.15,2013-02-28 06:30:00,
2013-02-28 01:32:00,48.9,35.6,29.64,North,360,3.0,4.0,60,0.00,,,0.00,Wunderground v.1.15,2013-02-28 06:32:00,
2013-02-28 01:36:00,48.8,35.9,29.64,North,360,3.0,4.0,61,0.00,,,0.00,Wunderground v.1.15,2013-02-28 06:36:00,
2013-02-28 01:38:00,48.9,36.4,29.64,North,360,3.0,4.0,62,0.00,,,0.00,Wunderground v.1.15,2013-02-28 06:38:00,
2013-02-28 01:40:00,48.8,35.9,29.64,North,360,3.0,4.0,61,0.00,,,0.00,Wunderground v.1.15,2013-02-28 06:40:00,
2013-02-28 01:44:00,48.5,36.1,29.65,North,360,4.0,15.0,62,0.00,,,0.00,Wunderground v.1.15,2013-02-28 06:44:00,
2013-02-28 01:46:00,48.1,36.9,29.64,North,360,6.0,15.0,65,0.00,,,0.00,Wunderground v.1.15,2013-02-28 06:46:00,
2013-02-28 01:48:00,47.7,37.3,29.65,North,360,7.0,15.0,67,0.00,,,0.00,Wunderground v.1.15,2013-02-28 06:48:00,
2013-02-28 01:50:00,47.4,37.0,29.65,North,360,7.0,7.0,67,0.00,,,0.00,Wunderground v.1.15,2013-02-28 06:50:00,
2013-02-28 01:54:00,47.2,37.2,29.65,North,360,6.0,7.0,68,0.00,,,0.00,Wunderground v.1.15,2013-02-28 06:54:00,
2013-02-28 01:56:00,47.1,37.1,29.64,North,360,5.0,7.0,68,0.00,,,0.00,Wunderground v.1.15,2013-02-28 06:56:00,
2013-02-28 01:58:00,47.0,37.0,29.64,North,360,4.0,7.0,68,0.00,,,0.00,Wunderground v.1.15,2013-02-28 06:58:00,
2013-02-28 02:02:00,47.0,37.0,29.64,North,360,5.0,6.0,68,0.00,,,0.00,Wunderground v.1.15,2013-02-28 07:02:00,
2013-02-28 02:04:00,47.0,37.0,29.64,North,360,6.0,7.0,68,0.00,,,0.00,Wunderground v.1.15,2013-02-28 07:04:00,
2013-02-28 02:08:00,46.9,36.5,29.64,North,360,6.0,7.0,67,0.00,,,0.00,Wunderground v.1.15,2013-02-28 07:08:00,
2013-02-28 02:10:00,46.8,36.4,29.64,North,360,6.0,8.0,67,0.00,,,0.00,Wunderground v.1.15,2013-02-28 07:10:00,
2013-02-28 02:12:00,46.8,36.4,29.64,North,360,7.0,8.0,67,0.00,,,0.00,Wunderground v.1.15,2013-02-28 07:12:00,
2013-02-28 02:14:00,46.8,36.4,29.64,North,360,7.0,8.0,67,0.00,,,0.00,Wunderground v.1.15,2013-02-28 07:14:00,
2013-02-28 02:16:00,46.8,36.4,29.64,North,360,7.0,8.0,67,0.00,,,0.00,Wunderground v.1.15,2013-02-28 07:16:00,
2013-02-28 02:18:00,46.8,36.4,29.64,North,360,7.0,8.0,67,0.00,,,0.00,Wunderground v.1.15,2013-02-28 07:18:00,
2013-02-28 02:22:00,46.9,36.5,29.64,North,360,7.0,10.0,67,0.00,,,0.00,Wunderground v.1.15,2013-02-28 07:22:00,
2013-02-28 02:24:00,46.9,36.5,29.64,North,360,7.0,10.0,67,0.00,,,0.00,Wunderground v.1.15,2013-02-28 07:24:00,
2013-02-28 02:26:00,46.9,36.5,29.64,North,360,7.0,10.0,67,0.00,,,0.00,Wunderground v.1.15,2013-02-28 07:26:00,
2013-02-28 02:28:00,46.9,36.5,29.64,North,360,7.0,10.0,67,0.00,,,0.00,Wunderground v.1.15,2013-02-28 07:28:00,
2013-02-28 02:30:00,46.8,36.8,29.64,North,360,7.0,7.0,68,0.00,,,0.00,Wunderground v.1.15,2013-02-28 07:30:00,
2013-02-28 02:32:00,46.9,36.9,29.64,North,360,6.0,7.0,68,0.00,,,0.00,Wunderground v.1.15,2013-02-28 07:32:00,
2013-02-28 02:36:00,46.7,36.7,29.64,North,360,7.0,10.0,68,0.00,,,0.00,Wunderground v.1.15,2013-02-28 07:36:00,
2013-02-28 02:38:00,46.7,36.7,29.64,North,360,8.0,10.0,68,0.00,,,0.00,Wunderground v.1.15,2013-02-28 07:38:00,
2013-02-28 02:42:00,46.7,37.1,29.65,North,360,7.0,8.0,69,0.00,,,0.00,Wunderground v.1.15,2013-02-28 07:42:00,
2013-02-28 02:44:00,46.7,37.1,29.64,North,360,7.0,9.0,69,0.00,,,0.00,Wunderground v.1.15,2013-02-28 07:44:00,
2013-02-28 02:50:00,46.4,37.1,29.64,North,360,6.0,10.0,70,0.00,,,0.00,Wunderground v.1.15,2013-02-28 07:50:00,
2013-02-28 02:52:00,46.4,37.1,29.64,North,360,6.0,10.0,70,0.00,,,0.00,Wunderground v.1.15,2013-02-28 07:52:00,
2013-02-28 02:54:00,46.5,37.6,29.64,North,360,6.0,10.0,71,0.00,,,0.00,Wunderground v.1.15,2013-02-28 07:54:00,
2013-02-28 02:58:00,46.6,37.7,29.64,North,360,6.0,10.0,71,0.00,,,0.00,Wunderground v.1.15,2013-02-28 07:58:00,
2013-02-28 03:02:00,46.5,37.6,29.64,North,360,6.0,12.0,71,0.00,,,0.00,Wunderground v.1.15,2013-02-28 08:02:00,
2013-02-28 03:04:00,46.5,37.6,29.64,North,360,6.0,12.0,71,0.00,,,0.00,Wunderground v.1.15,2013-02-28 08:04:00,
2013-02-28 03:06:00,46.3,37.4,29.64,North,360,6.0,12.0,71,0.00,,,0.00,Wunderground v.1.15,2013-02-28 08:06:00,
2013-02-28 03:08:00,46.1,37.6,29.64,North,360,7.0,16.0,72,0.00,,,0.00,Wunderground v.1.15,2013-02-28 08:08:00,
2013-02-28 03:12:00,45.8,37.3,29.64,North,360,9.0,13.0,72,0.00,,,0.00,Wunderground v.1.15,2013-02-28 08:12:00,
2013-02-28 03:18:00,45.7,37.5,29.64,North,360,9.0,13.0,73,0.00,,,0.00,Wunderground v.1.15,2013-02-28 08:18:00,
2013-02-28 03:20:00,45.5,37.3,29.64,North,360,9.0,19.0,73,0.00,,,0.00,Wunderground v.1.15,2013-02-28 08:20:00,
2013-02-28 03:22:00,45.3,37.2,29.64,North,360,10.0,19.0,73,0.00,,,0.00,Wunderground v.1.15,2013-02-28 08:22:00,
2013-02-28 03:26:00,45.1,37.6,29.64,North,360,9.0,19.0,75,0.00,,,0.00,Wunderground v.1.15,2013-02-28 08:26:00,
2013-02-28 03:30:00,44.8,37.0,29.64,North,360,10.0,10.0,74,0.00,,,0.00,Wunderground v.1.15,2013-02-28 08:30:00,
2013-02-28 03:32:00,44.7,37.3,29.63,North,360,9.0,10.0,75,0.00,,,0.00,Wunderground v.1.15,2013-02-28 08:32:00,
2013-02-28 03:36:00,44.6,37.5,29.63,North,360,10.0,11.0,76,0.00,,,0.00,Wunderground v.1.15,2013-02-28 08:36:00,
2013-02-28 03:38:00,44.5,37.4,29.63,North,360,10.0,11.0,76,0.00,,,0.00,Wunderground v.1.15,2013-02-28 08:38:00,
2013-02-28 03:40:00,44.5,37.4,29.63,North,360,10.0,10.0,76,0.00,,,0.00,Wunderground v.1.15,2013-02-28 08:40:00,
2013-02-28 03:44:00,44.4,37.6,29.63,North,360,10.0,10.0,77,0.00,,,0.00,Wunderground v.1.15,2013-02-28 08:44:00,
2013-02-28 03:46:00,44.5,37.7,29.64,North,360,9.0,10.0,77,0.00,,,0.00,Wunderground v.1.15,2013-02-28 08:46:00,
2013-02-28 03:48:00,44.5,37.7,29.63,North,360,8.0,10.0,77,0.00,,,0.00,Wunderground v.1.15,2013-02-28 08:48:00,
2013-02-28 03:50:00,44.6,37.8,29.63,North,360,7.0,7.0,77,0.00,,,0.00,Wunderground v.1.15,2013-02-28 08:50:00,
2013-02-28 03:56:00,45.0,37.9,29.63,North,360,5.0,10.0,76,0.00,,,0.00,Wunderground v.1.15,2013-02-28 08:56:00,
2013-02-28 04:02:00,45.1,38.0,29.63,North,360,5.0,5.0,76,0.00,,,0.00,Wunderground v.1.15,2013-02-28 09:02:00,
2013-02-28 04:04:00,45.1,38.0,29.63,North,360,5.0,11.0,76,0.00,,,0.00,Wunderground v.1.15,2013-02-28 09:04:00,
2013-02-28 04:06:00,45.1,38.0,29.63,North,360,6.0,11.0,76,0.00,,,0.00,Wunderground v.1.15,2013-02-28 09:06:00,
2013-02-28 04:08:00,45.0,37.9,29.63,North,360,6.0,11.0,76,0.00,,,0.00,Wunderground v.1.15,2013-02-28 09:08:00,
2013-02-28 04:12:00,45.0,38.2,29.63,North,360,6.0,6.0,77,0.00,,,0.00,Wunderground v.1.15,2013-02-28 09:12:00,
2013-02-28 04:14:00,45.0,37.9,29.63,North,360,6.0,6.0,76,0.00,,,0.00,Wunderground v.1.15,2013-02-28 09:14:00,
2013-02-28 04:16:00,44.9,38.1,29.64,North,360,6.0,6.0,77,0.00,,,0.00,Wunderground v.1.15,2013-02-28 09:16:00,
2013-02-28 04:18:00,45.0,38.2,29.64,North,360,6.0,6.0,77,0.00,,,0.00,Wunderground v.1.15,2013-02-28 09:18:00,
2013-02-28 04:22:00,45.0,37.9,29.64,North,360,6.0,9.0,76,0.00,,,0.00,Wunderground v.1.15,2013-02-28 09:22:00,
2013-02-28 04:24:00,44.8,37.7,29.64,North,360,6.0,9.0,76,0.00,,,0.00,Wunderground v.1.15,2013-02-28 09:24:00,
2013-02-28 04:28:00,44.7,37.9,29.64,North,360,6.0,9.0,77,0.00,,,0.00,Wunderground v.1.15,2013-02-28 09:28:00,
2013-02-28 04:32:00,44.9,38.1,29.64,North,360,5.0,6.0,77,0.00,,,0.00,Wunderground v.1.15,2013-02-28 09:32:00,
2013-02-28 04:34:00,45.0,38.2,29.64,North,360,4.0,6.0,77,0.00,,,0.00,Wunderground v.1.15,2013-02-28 09:34:00,
2013-02-28 04:38:00,44.9,37.8,29.64,North,360,3.0,6.0,76,0.00,,,0.00,Wunderground v.1.15,2013-02-28 09:38:00,
2013-02-28 04:40:00,44.9,37.8,29.64,North,360,3.0,3.0,76,0.00,,,0.00,Wunderground v.1.15,2013-02-28 09:40:00,
2013-02-28 04:44:00,44.7,37.6,29.64,North,360,3.0,6.0,76,0.00,,,0.00,Wunderground v.1.15,2013-02-28 09:44:00,
2013-02-28 04:46:00,44.7,37.6,29.64,North,360,3.0,6.0,76,0.00,,,0.00,Wunderground v.1.15,2013-02-28 09:46:00,
2013-02-28 04:50:00,44.6,37.5,29.64,North,360,3.0,3.0,76,0.00,,,0.00,Wunderground v.1.15,2013-02-28 09:50:00,
2013-02-28 04:52:00,44.6,37.5,29.64,North,360,3.0,5.0,76,0.00,,,0.00,Wunderground v.1.15,2013-02-28 09:52:00,
2013-02-28 04:58:00,44.5,37.4,29.64,North,360,2.0,5.0,76,0.00,,,0.01,Wunderground v.1.15,2013-02-28 09:58:00,
2013-02-28 05:00:00,44.6,37.5,29.64,North,360,2.0,2.0,76,0.00,,,0.01,Wunderground v.1.15,2013-02-28 10:00:00,
2013-02-28 05:06:00,44.5,37.1,29.64,North,360,2.0,6.0,75,0.00,,,0.01,Wunderground v.1.15,2013-02-28 10:06:00,
2013-02-28 05:08:00,44.4,37.0,29.64,North,360,2.0,6.0,75,0.00,,,0.01,Wunderground v.1.15,2013-02-28 10:08:00,
2013-02-28 05:10:00,44.4,37.3,29.64,North,360,2.0,2.0,76,0.00,,,0.01,Wunderground v.1.15,2013-02-28 10:10:00,
2013-02-28 05:12:00,44.4,37.3,29.64,North,360,2.0,2.0,76,0.00,,,0.01,Wunderground v.1.15,2013-02-28 10:12:00,
2013-02-28 05:14:00,44.5,37.1,29.64,North,360,3.0,3.0,75,0.00,,,0.01,Wunderground v.1.15,2013-02-28 10:14:00,
2013-02-28 05:16:00,44.5,36.7,29.64,North,360,2.0,4.0,74,0.00,,,0.01,Wunderground v.1.15,2013-02-28 10:16:00,
2013-02-28 05:18:00,44.6,36.8,29.65,North,360,2.0,6.0,74,0.00,,,0.01,Wunderground v.1.15,2013-02-28 10:18:00,
2013-02-28 05:22:00,44.8,37.0,29.65,North,360,3.0,3.0,74,0.00,,,0.01,Wunderground v.1.15,2013-02-28 10:22:00,
2013-02-28 05:24:00,44.8,37.0,29.65,North,360,2.0,3.0,74,0.00,,,0.01,Wunderground v.1.15,2013-02-28 10:24:00,
2013-02-28 05:26:00,44.8,37.0,29.65,North,360,2.0,3.0,74,0.00,,,0.01,Wunderground v.1.15,2013-02-28 10:26:00,
2013-02-28 05:28:00,44.9,37.1,29.65,North,360,2.0,5.0,74,0.00,,,0.01,Wunderground v.1.15,2013-02-28 10:28:00,
2013-02-28 05:30:00,44.8,36.3,29.65,North,360,3.0,11.0,72,0.00,,,0.01,Wunderground v.1.15,2013-02-28 10:30:00,
2013-02-28 05:36:00,44.5,35.0,29.65,North,360,9.0,17.0,69,0.00,,,0.01,Wunderground v.1.15,2013-02-28 10:36:00,
2013-02-28 05:38:00,44.5,35.0,29.65,North,360,10.0,17.0,69,0.00,,,0.01,Wunderground v.1.15,2013-02-28 10:38:00,
2013-02-28 05:42:00,44.5,34.2,29.65,North,360,10.0,10.0,67,0.00,,,0.01,Wunderground v.1.15,2013-02-28 10:42:00,
2013-02-28 05:44:00,44.5,34.6,29.65,North,360,9.0,10.0,68,0.00,,,0.01,Wunderground v.1.15,2013-02-28 10:44:00,
2013-02-28 05:46:00,44.4,33.7,29.65,North,360,8.0,10.0,66,0.00,,,0.01,Wunderground v.1.15,2013-02-28 10:46:00,
2013-02-28 05:50:00,44.5,34.2,29.66,North,360,7.0,7.0,67,0.00,,,0.01,Wunderground v.1.15,2013-02-28 10:50:00,
2013-02-28 05:54:00,44.3,33.7,29.66,North,360,6.0,10.0,66,0.00,,,0.01,Wunderground v.1.15,2013-02-28 10:54:00,
2013-02-28 05:56:00,44.2,33.6,29.66,North,360,6.0,10.0,66,0.00,,,0.01,Wunderground v.1.15,2013-02-28 10:56:00,
2013-02-28 06:00:00,43.8,32.0,29.66,North,360,8.0,11.0,63,0.00,,,0.01,Wunderground v.1.15,2013-02-28 11:00:00,
2013-02-28 06:02:00,43.6,31.8,29.66,North,360,10.0,11.0,63,0.00,,,0.01,Wunderground v.1.15,2013-02-28 11:02:00,
2013-02-28 06:04:00,43.6,31.8,29.66,North,360,11.0,15.0,63,0.00,,,0.01,Wunderground v.1.15,2013-02-28 11:04:00,
2013-02-28 06:06:00,43.5,31.7,29.66,North,360,12.0,15.0,63,0.00,,,0.01,Wunderground v.1.15,2013-02-28 11:06:00,
2013-02-28 06:10:00,43.4,31.2,29.66,North,360,11.0,11.0,62,0.00,,,0.01,Wunderground v.1.15,2013-02-28 11:10:00,
2013-02-28 06:12:00,43.3,31.1,29.66,North,360,10.0,11.0,62,0.00,,,0.01,Wunderground v.1.15,2013-02-28 11:12:00,
2013-02-28 06:14:00,43.3,31.5,29.66,North,360,10.0,11.0,63,0.00,,,0.01,Wunderground v.1.15,2013-02-28 11:14:00,
2013-02-28 06:16:00,43.3,31.1,29.66,North,360,9.0,11.0,62,0.00,,,0.01,Wunderground v.1.15,2013-02-28 11:16:00,
2013-02-28 06:22:00,43.4,31.6,29.66,North,360,7.0,8.0,63,0.00,,,0.01,Wunderground v.1.15,2013-02-28 11:22:00,
2013-02-28 06:24:00,43.6,31.8,29.66,North,360,6.0,8.0,63,0.00,,,0.01,Wunderground v.1.15,2013-02-28 11:24:00,
2013-02-28 06:28:00,43.8,31.6,29.66,North,360,5.0,8.0,62,0.00,,,0.01,Wunderground v.1.15,2013-02-28 11:28:00,
2013-02-28 06:30:00,43.9,31.3,29.66,North,360,5.0,5.0,61,0.00,,,0.01,Wunderground v.1.15,2013-02-28 11:30:00,
2013-02-28 06:34:00,44.0,31.8,29.66,North,360,4.0,6.0,62,0.00,,,0.01,Wunderground v.1.15,2013-02-28 11:34:00,
2013-02-28 06:36:00,44.0,31.4,29.66,North,360,4.0,10.0,61,0.00,,,0.01,Wunderground v.1.15,2013-02-28 11:36:00,
2013-02-28 06:38:00,43.9,31.3,29.66,North,360,5.0,10.0,61,0.00,,,0.01,Wunderground v.1.15,2013-02-28 11:38:00,
2013-02-28 06:40:00,43.8,31.2,29.66,North,360,4.0,4.0,61,0.00,,,0.01,Wunderground v.1.15,2013-02-28 11:40:00,
2013-02-28 06:44:00,44.0,31.4,29.66,North,360,5.0,6.0,61,0.00,,,0.01,Wunderground v.1.15,2013-02-28 11:44:00,
2013-02-28 06:48:00,43.6,30.6,29.66,North,360,5.0,7.0,60,0.00,,,0.01,Wunderground v.1.15,2013-02-28 11:48:00,
2013-02-28 06:50:00,43.5,30.5,29.66,North,360,5.0,7.0,60,0.00,,,0.01,Wunderground v.1.15,2013-02-28 11:50:00,
2013-02-28 06:52:00,43.3,30.3,29.66,North,360,6.0,7.0,60,0.00,,,0.01,Wunderground v.1.15,2013-02-28 11:52:00,
2013-02-28 06:54:00,43.4,30.8,29.66,North,360,6.0,7.0,61,0.00,,,0.01,Wunderground v.1.15,2013-02-28 11:54:00,
2013-02-28 06:56:00,43.4,30.4,29.66,North,360,7.0,7.0,60,0.00,,,0.01,Wunderground v.1.15,2013-02-28 11:56:00,
2013-02-28 07:00:00,43.4,30.8,29.66,North,360,6.0,6.0,61,0.00,,,0.01,Wunderground v.1.15,2013-02-28 12:00:00,
2013-02-28 07:04:00,43.2,29.8,29.66,North,360,6.0,12.0,59,0.00,,,0.01,Wunderground v.1.15,2013-02-28 12:04:00,
2013-02-28 07:06:00,43.0,29.6,29.66,North,360,7.0,12.0,59,0.00,,,0.01,Wunderground v.1.15,2013-02-28 12:06:00,
2013-02-28 07:10:00,43.1,29.7,29.67,North,360,8.0,8.0,59,0.00,,,0.01,Wunderground v.1.15,2013-02-28 12:10:00,
2013-02-28 07:14:00,43.0,29.6,29.66,North,360,8.0,11.0,59,0.00,,,0.01,Wunderground v.1.15,2013-02-28 12:14:00,
2013-02-28 07:16:00,42.9,29.5,29.66,North,360,8.0,11.0,59,0.00,,,0.01,Wunderground v.1.15,2013-02-28 12:16:00,
2013-02-28 07:18:00,42.8,29.9,29.66,North,360,8.0,11.0,60,0.00,,,0.01,Wunderground v.1.15,2013-02-28 12:18:00,
2013-02-28 07:20:00,42.9,30.0,29.67,North,360,7.0,7.0,60,0.00,,,0.01,Wunderground v.1.15,2013-02-28 12:20:00,
2013-02-28 07:22:00,43.1,30.6,29.67,North,360,6.0,7.0,61,0.00,,,0.01,Wunderground v.1.15,2013-02-28 12:22:00,
2013-02-28 07:26:00,42.9,30.0,29.66,North,360,5.0,11.0,60,0.00,,,0.01,Wunderground v.1.15,2013-02-28 12:26:00,
2013-02-28 07:28:00,43.0,30.1,29.66,North,360,5.0,11.0,60,0.00,,,0.01,Wunderground v.1.15,2013-02-28 12:28:00,
2013-02-28 07:34:00,42.7,29.8,29.67,North,360,7.0,13.0,60,0.00,,,0.01,Wunderground v.1.15,2013-02-28 12:34:00,
2013-02-28 07:36:00,42.8,29.5,29.67,North,360,6.0,13.0,59,0.00,,,0.01,Wunderground v.1.15,2013-02-28 12:36:00,
2013-02-28 07:40:00,42.9,29.5,29.67,North,360,6.0,6.0,59,0.00,,,0.01,Wunderground v.1.15,2013-02-28 12:40:00,
2013-02-28 07:46:00,42.8,29.9,29.67,North,360,5.0,6.0,60,0.00,,,0.01,Wunderground v.1.15,2013-02-28 12:46:00,
2013-02-28 07:48:00,42.8,29.9,29.67,North,360,5.0,6.0,60,0.00,,,0.01,Wunderground v.1.15,2013-02-28 12:48:00,
2013-02-28 07:52:00,42.6,29.3,29.67,North,360,6.0,7.0,59,0.00,,,0.01,Wunderground v.1.15,2013-02-28 12:52:00,
2013-02-28 07:54:00,42.6,29.3,29.67,North,360,6.0,8.0,59,0.00,,,0.01,Wunderground v.1.15,2013-02-28 12:54:00,
2013-02-28 07:56:00,42.7,29.4,29.67,North,360,6.0,8.0,59,0.00,,,0.01,Wunderground v.1.15,2013-02-28 12:56:00,
2013-02-28 07:58:00,42.8,29.5,29.67,North,360,6.0,8.0,59,0.00,,,0.01,Wunderground v.1.15,2013-02-28 12:58:00,
2013-02-28 08:00:00,42.8,29.5,29.67,North,360,6.0,6.0,59,0.00,,,0.01,Wunderground v.1.15,2013-02-28 13:00:00,
2013-02-28 08:02:00,42.7,29.4,29.67,North,360,6.0,9.0,59,0.00,,,0.01,Wunderground v.1.15,2013-02-28 13:02:00,
2013-02-28 08:04:00,42.6,29.3,29.67,North,360,6.0,9.0,59,0.00,,,0.01,Wunderground v.1.15,2013-02-28 13:04:00,
2013-02-28 08:06:00,42.5,29.2,29.67,North,360,5.0,9.0,59,0.00,,,0.01,Wunderground v.1.15,2013-02-28 13:06:00,
2013-02-28 08:08:00,42.4,29.1,29.68,North,360,5.0,9.0,59,0.00,,,0.01,Wunderground v.1.15,2013-02-28 13:08:00,
2013-02-28 08:10:00,42.6,29.3,29.68,North,360,6.0,9.0,59,0.00,,,0.01,Wunderground v.1.15,2013-02-28 13:10:00,
2013-02-28 08:14:00,42.5,28.8,29.67,North,360,7.0,11.0,58,0.00,,,0.01,Wunderground v.1.15,2013-02-28 13:14:00,
2013-02-28 08:16:00,42.4,28.7,29.67,North,360,8.0,11.0,58,0.00,,,0.01,Wunderground v.1.15,2013-02-28 13:16:00,
2013-02-28 08:18:00,42.4,29.1,29.67,North,360,8.0,11.0,59,0.00,,,0.01,Wunderground v.1.15,2013-02-28 13:18:00,
2013-02-28 08:20:00,42.5,29.2,29.67,North,360,8.0,9.0,59,0.00,,,0.01,Wunderground v.1.15,2013-02-28 13:20:00,
2013-02-28 08:22:00,42.5,28.8,29.67,North,360,8.0,10.0,58,0.00,,,0.01,Wunderground v.1.15,2013-02-28 13:22:00,
2013-02-28 08:26:00,42.5,28.8,29.68,North,360,7.0,11.0,58,0.00,,,0.01,Wunderground v.1.15,2013-02-28 13:26:00,
2013-02-28 08:28:00,42.5,28.8,29.68,North,360,7.0,11.0,58,0.00,,,0.01,Wunderground v.1.15,2013-02-28 13:28:00,
2013-02-28 08:30:00,42.7,28.9,29.68,North,360,7.0,7.0,58,0.00,,,0.01,Wunderground v.1.15,2013-02-28 13:30:00,
2013-02-28 08:34:00,42.6,28.8,29.68,North,360,8.0,13.0,58,0.00,,,0.01,Wunderground v.1.15,2013-02-28 13:34:00,
2013-02-28 08:36:00,42.7,28.9,29.68,North,360,7.0,13.0,58,0.00,,,0.01,Wunderground v.1.15,2013-02-28 13:36:00,
2013-02-28 08:38:00,42.9,29.1,29.68,North,360,7.0,13.0,58,0.00,,,0.01,Wunderground v.1.15,2013-02-28 13:38:00,
2013-02-28 08:40:00,43.0,28.8,29.68,North,360,8.0,8.0,57,0.00,,,0.01,Wunderground v.1.15,2013-02-28 13:40:00,
2013-02-28 08:44:00,43.2,29.4,29.68,North,360,6.0,8.0,58,0.00,,,0.01,Wunderground v.1.15,2013-02-28 13:44:00,
2013-02-28 08:46:00,43.2,29.0,29.67,North,360,6.0,8.0,57,0.00,,,0.01,Wunderground v.1.15,2013-02-28 13:46:00,
2013-02-28 08:48:00,43.1,28.5,29.67,North,360,7.0,8.0,56,0.00,,,0.01,Wunderground v.1.15,2013-02-28 13:48:00,
2013-02-28 08:50:00,43.2,29.0,29.68,North,360,7.0,8.0,57,0.00,,,0.01,Wunderground v.1.15,2013-02-28 13:50:00,
2013-02-28 08:52:00,43.2,28.5,29.67,North,360,8.0,9.0,56,0.00,,,0.01,Wunderground v.1.15,2013-02-28 13:52:00,
2013-02-28 08:54:00,43.3,29.1,29.67,North,360,8.0,9.0,57,0.00,,,0.01,Wunderground v.1.15,2013-02-28 13:54:00,
2013-02-28 08:58:00,43.3,28.6,29.67,North,360,9.0,13.0,56,0.00,,,0.01,Wunderground v.1.15,2013-02-28 13:58:00,
2013-02-28 09:02:00,43.6,28.9,29.67,North,360,9.0,10.0,56,0.00,,,0.01,Wunderground v.1.15,2013-02-28 14:02:00,
2013-02-28 09:04:00,43.8,29.1,29.67,North,360,9.0,10.0,56,0.00,,,0.01,Wunderground v.1.15,2013-02-28 14:04:00,
2013-02-28 09:06:00,44.1,28.9,29.67,North,360,9.0,10.0,55,0.00,,,0.01,Wunderground v.1.15,2013-02-28 14:06:00,
2013-02-28 09:08:00,44.2,29.0,29.67,North,360,9.0,10.0,55,0.00,,,0.01,Wunderground v.1.15,2013-02-28 14:08:00,
2013-02-28 09:10:00,44.0,28.9,29.67,North,360,9.0,9.0,55,0.00,,,0.01,Wunderground v.1.15,2013-02-28 14:10:00,
2013-02-28 09:14:00,43.8,28.7,29.67,North,360,10.0,11.0,55,0.00,,,0.01,Wunderground v.1.15,2013-02-28 14:14:00,
2013-02-28 09:16:00,43.7,28.1,29.67,North,360,10.0,11.0,54,0.00,,,0.01,Wunderground v.1.15,2013-02-28 14:16:00,
2013-02-28 09:18:00,43.5,27.9,29.67,North,360,11.0,11.0,54,0.00,,,0.01,Wunderground v.1.15,2013-02-28 14:18:00,
2013-02-28 09:22:00,43.7,28.1,29.67,North,360,11.0,16.0,54,0.00,,,0.01,Wunderground v.1.15,2013-02-28 14:22:00,
2013-02-28 09:24:00,43.8,27.8,29.67,North,360,11.0,16.0,53,0.00,,,0.01,Wunderground v.1.15,2013-02-28 14:24:00,
2013-02-28 09:28:00,43.9,27.9,29.67,North,360,11.0,16.0,53,0.00,,,0.01,Wunderground v.1.15,2013-02-28 14:28:00,
2013-02-28 09:30:00,44.0,28.0,29.67,North,360,11.0,11.0,53,0.00,,,0.01,Wunderground v.1.15,2013-02-28 14:30:00,
2013-02-28 09:34:00,44.5,28.4,29.67,North,360,10.0,15.0,53,0.00,,,0.01,Wunderground v.1.15,2013-02-28 14:34:00,
2013-02-28 09:36:00,44.6,28.0,29.67,North,360,10.0,15.0,52,0.00,,,0.01,Wunderground v.1.15,2013-02-28 14:36:00,
2013-02-28 09:40:00,44.6,27.1,29.67,North,360,11.0,13.0,50,0.00,,,0.01,Wunderground v.1.15,2013-02-28 14:40:00,
2013-02-28 09:44:00,44.6,27.1,29.67,North,360,13.0,21.0,50,0.00,,,0.01,Wunderground v.1.15,2013-02-28 14:44:00,
2013-02-28 09:46:00,44.5,27.0,29.67,North,360,13.0,21.0,50,0.00,,,0.01,Wunderground v.1.15,2013-02-28 14:46:00,
2013-02-28 09:50:00,44.7,26.7,29.67,North,360,13.0,18.0,49,0.00,,,0.01,Wunderground v.1.15,2013-02-28 14:50:00,
2013-02-28 09:52:00,44.7,26.7,29.67,North,360,13.0,18.0,49,0.00,,,0.01,Wunderground v.1.15,2013-02-28 14:52:00,
2013-02-28 09:56:00,44.7,26.7,29.67,North,360,12.0,18.0,49,0.00,,,0.01,Wunderground v.1.15,2013-02-28 14:56:00,
2013-02-28 09:58:00,44.9,26.4,29.66,North,360,13.0,18.0,48,0.00,,,0.01,Wunderground v.1.15,2013-02-28 14:58:00,
2013-02-28 10:02:00,45.2,26.7,29.66,North,360,12.0,12.0,48,0.00,,,0.01,Wunderground v.1.15,2013-02-28 15:02:00,
2013-02-28 10:04:00,45.1,26.1,29.66,North,360,11.0,12.0,47,0.00,,,0.01,Wunderground v.1.15,2013-02-28 15:04:00,
2013-02-28 10:06:00,45.1,26.6,29.67,North,360,10.0,12.0,48,0.00,,,0.01,Wunderground v.1.15,2013-02-28 15:06:00,
2013-02-28 10:12:00,45.6,26.5,29.66,North,360,10.0,19.0,47,0.00,,,0.01,Wunderground v.1.15,2013-02-28 15:12:00,
2013-02-28 10:14:00,45.7,26.6,29.66,North,360,10.0,19.0,47,0.00,,,0.01,Wunderground v.1.15,2013-02-28 15:14:00,
2013-02-28 10:16:00,45.8,27.2,29.66,North,360,10.0,19.0,48,0.00,,,0.01,Wunderground v.1.15,2013-02-28 15:16:00,
2013-02-28 10:20:00,46.0,26.9,29.66,North,360,9.0,12.0,47,0.00,,,0.01,Wunderground v.1.15,2013-02-28 15:20:00,
2013-02-28 10:22:00,45.8,26.7,29.66,North,360,9.0,12.0,47,0.00,,,0.01,Wunderground v.1.15,2013-02-28 15:22:00,
2013-02-28 10:24:00,45.6,26.5,29.66,North,360,9.0,12.0,47,0.00,,,0.01,Wunderground v.1.15,2013-02-28 15:24:00,
2013-02-28 10:30:00,45.2,26.1,29.66,North,360,11.0,14.0,47,0.00,,,0.01,Wunderground v.1.15,2013-02-28 15:30:00,
2013-02-28 10:32:00,45.2,26.7,29.66,North,360,11.0,14.0,48,0.00,,,0.01,Wunderground v.1.15,2013-02-28 15:32:00,
2013-02-28 10:34:00,45.1,26.6,29.66,North,360,11.0,14.0,48,0.00,,,0.01,Wunderground v.1.15,2013-02-28 15:34:00,
2013-02-28 10:38:00,45.4,26.8,29.66,North,360,10.0,14.0,48,0.00,,,0.01,Wunderground v.1.15,2013-02-28 15:38:00,
2013-02-28 10:40:00,45.7,27.1,29.66,North,360,10.0,11.0,48,0.00,,,0.01,Wunderground v.1.15,2013-02-28 15:40:00,
2013-02-28 10:44:00,45.8,27.2,29.66,North,360,10.0,11.0,48,0.00,,,0.01,Wunderground v.1.15,2013-02-28 15:44:00,
2013-02-28 10:46:00,45.9,27.3,29.66,North,360,9.0,11.0,48,0.00,,,0.01,Wunderground v.1.15,2013-02-28 15:46:00,
2013-02-28 10:50:00,46.0,26.9,29.66,North,360,9.0,10.0,47,0.00,,,0.01,Wunderground v.1.15,2013-02-28 15:50:00,
2013-02-28 10:52:00,45.8,26.7,29.65,North,360,9.0,12.0,47,0.00,,,0.01,Wunderground v.1.15,2013-02-28 15:52:00,
2013-02-28 10:54:00,45.8,26.7,29.65,North,360,9.0,12.0,47,0.00,,,0.01,Wunderground v.1.15,2013-02-28 15:54:00,
2013-02-28 10:56:00,45.6,26.5,29.66,North,360,10.0,13.0,47,0.00,,,0.01,Wunderground v.1.15,2013-02-28 15:56:00,
2013-02-28 11:00:00,45.9,26.8,29.66,North,360,10.0,11.0,47,0.00,,,0.01,Wunderground v.1.15,2013-02-28 16:00:00,
2013-02-28 11:02:00,46.3,27.2,29.65,North,360,9.0,11.0,47,0.00,,,0.01,Wunderground v.1.15,2013-02-28 16:02:00,
2013-02-28 11:08:00,47.0,27.3,29.65,North,360,8.0,11.0,46,0.00,,,0.01,Wunderground v.1.15,2013-02-28 16:08:00,
2013-02-28 11:10:00,47.2,26.9,29.65,North,360,8.0,8.0,45,0.00,,,0.01,Wunderground v.1.15,2013-02-28 16:10:00,
2013-02-28 11:14:00,47.2,26.4,29.65,North,360,9.0,11.0,44,0.00,,,0.01,Wunderground v.1.15,2013-02-28 16:14:00,
2013-02-28 11:16:00,47.3,27.0,29.65,North,360,9.0,11.0,45,0.00,,,0.01,Wunderground v.1.15,2013-02-28 16:16:00,
2013-02-28 11:20:00,47.8,27.5,29.65,North,360,7.0,7.0,45,0.00,,,0.01,Wunderground v.1.15,2013-02-28 16:20:00,
2013-02-28 11:22:00,47.9,27.6,29.65,North,360,6.0,8.0,45,0.00,,,0.01,Wunderground v.1.15,2013-02-28 16:22:00,
2013-02-28 11:24:00,47.8,27.5,29.65,North,360,5.0,8.0,45,0.00,,,0.01,Wunderground v.1.15,2013-02-28 16:24:00,
2013-02-28 11:26:00,47.9,28.1,29.65,North,360,5.0,8.0,46,0.00,,,0.01,Wunderground v.1.15,2013-02-28 16:26:00,
2013-02-28 11:30:00,48.1,27.2,29.65,North,360,6.0,10.0,44,0.00,,,0.01,Wunderground v.1.15,2013-02-28 16:30:00,
2013-02-28 11:32:00,48.1,27.2,29.65,North,360,6.0,10.0,44,0.00,,,0.01,Wunderground v.1.15,2013-02-28 16:32:00,
2013-02-28 11:36:00,48.2,28.4,29.65,North,360,7.0,12.0,46,0.00,,,0.01,Wunderground v.1.15,2013-02-28 16:36:00,
2013-02-28 11:38:00,48.2,26.7,29.65,North,360,7.0,12.0,43,0.00,,,0.01,Wunderground v.1.15,2013-02-28 16:38:00,
2013-02-28 11:40:00,47.9,27.0,29.65,North,360,8.0,8.0,44,0.00,,,0.01,Wunderground v.1.15,2013-02-28 16:40:00,
2013-02-28 11:42:00,47.8,26.9,29.65,North,360,9.0,13.0,44,0.00,,,0.01,Wunderground v.1.15,2013-02-28 16:42:00,
2013-02-28 11:44:00,47.7,27.4,29.65,North,360,9.0,13.0,45,0.00,,,0.01,Wunderground v.1.15,2013-02-28 16:44:00,
2013-02-28 11:50:00,47.6,26.2,29.65,North,360,10.0,12.0,43,0.00,,,0.01,Wunderground v.1.15,2013-02-28 16:50:00,
2013-02-28 11:52:00,47.4,26.6,29.65,North,360,10.0,12.0,44,0.00,,,0.01,Wunderground v.1.15,2013-02-28 16:52:00,
2013-02-28 11:54:00,47.2,26.4,29.65,North,360,10.0,12.0,44,0.00,,,0.01,Wunderground v.1.15,2013-02-28 16:54:00,
2013-02-28 11:58:00,46.9,26.1,29.65,North,360,11.0,12.0,44,0.00,,,0.01,Wunderground v.1.15,2013-02-28 16:58:00,
2013-02-28 12:00:00,46.8,26.0,29.65,North,360,11.0,20.0,44,0.00,,,0.01,Wunderground v.1.15,2013-02-28 17:00:00,
2013-02-28 12:02:00,46.6,25.8,29.65,North,360,12.0,20.0,44,0.00,,,0.01,Wunderground v.1.15,2013-02-28 17:02:00,
2013-02-28 12:04:00,46.6,25.8,29.65,North,360,12.0,20.0,44,0.00,,,0.01,Wunderground v.1.15,2013-02-28 17:04:00,
2013-02-28 12:06:00,46.6,25.8,29.65,North,360,13.0,20.0,44,0.00,,,0.01,Wunderground v.1.15,2013-02-28 17:06:00,
2013-02-28 12:08:00,46.6,25.8,29.65,North,360,12.0,20.0,44,0.00,,,0.01,Wunderground v.1.15,2013-02-28 17:08:00,
2013-02-28 12:10:00,46.5,26.3,29.65,North,360,11.0,14.0,45,0.00,,,0.01,Wunderground v.1.15,2013-02-28 17:10:00,
2013-02-28 12:12:00,46.2,26.5,29.65,North,360,10.0,14.0,46,0.00,,,0.01,Wunderground v.1.15,2013-02-28 17:12:00,
2013-02-28 12:14:00,46.4,26.7,29.66,North,360,9.0,14.0,46,0.00,,,0.01,Wunderground v.1.15,2013-02-28 17:14:00,
2013-02-28 12:18:00,46.5,26.8,29.65,North,360,9.0,15.0,46,0.00,,,0.01,Wunderground v.1.15,2013-02-28 17:18:00,
2013-02-28 12:20:00,46.5,26.8,29.65,North,360,10.0,14.0,46,0.00,,,0.01,Wunderground v.1.15,2013-02-28 17:20:00,
2013-02-28 12:22:00,46.4,27.2,29.65,North,360,10.0,14.0,47,0.00,,,0.01,Wunderground v.1.15,2013-02-28 17:22:00,
2013-02-28 12:24:00,46.4,26.7,29.65,North,360,11.0,14.0,46,0.00,,,0.01,Wunderground v.1.15,2013-02-28 17:24:00,
2013-02-28 12:26:00,46.3,26.6,29.65,North,360,11.0,14.0,46,0.00,,,0.01,Wunderground v.1.15,2013-02-28 17:26:00,
2013-02-28 12:30:00,45.9,26.8,29.65,North,360,10.0,10.0,47,0.00,,,0.01,Wunderground v.1.15,2013-02-28 17:30:00,
2013-02-28 12:32:00,46.1,27.0,29.65,North,360,10.0,10.0,47,0.00,,,0.01,Wunderground v.1.15,2013-02-28 17:32:00,
2013-02-28 12:34:00,46.2,27.1,29.65,North,360,9.0,10.0,47,0.00,,,0.01,Wunderground v.1.15,2013-02-28 17:34:00,
2013-02-28 12:38:00,46.0,27.4,29.65,North,360,9.0,10.0,48,0.00,,,0.01,Wunderground v.1.15,2013-02-28 17:38:00,
2013-02-28 12:44:00,45.7,27.6,29.65,North,360,9.0,9.0,49,0.00,,,0.01,Wunderground v.1.15,2013-02-28 17:44:00,
2013-02-28 12:46:00,45.7,27.1,29.65,North,360,9.0,17.0,48,0.00,,,0.01,Wunderground v.1.15,2013-02-28 17:46:00,
2013-02-28 12:48:00,45.8,27.2,29.65,North,360,9.0,17.0,48,0.00,,,0.01,Wunderground v.1.15,2013-02-28 17:48:00,
2013-02-28 12:50:00,46.0,27.4,29.65,North,360,10.0,10.0,48,0.00,,,0.01,Wunderground v.1.15,2013-02-28 17:50:00,
2013-02-28 12:52:00,46.0,27.4,29.65,North,360,10.0,10.0,48,0.00,,,0.01,Wunderground v.1.15,2013-02-28 17:52:00,
2013-02-28 12:54:00,45.9,27.8,29.65,North,360,10.0,14.0,49,0.00,,,0.01,Wunderground v.1.15,2013-02-28 17:54:00,
2013-02-28 12:56:00,46.1,28.0,29.65,North,360,10.0,14.0,49,0.00,,,0.01,Wunderground v.1.15,2013-02-28 17:56:00,
2013-02-28 13:00:00,46.1,27.5,29.65,North,360,10.0,12.0,48,0.00,,,0.01,Wunderground v.1.15,2013-02-28 18:00:00,
2013-02-28 13:02:00,45.8,27.7,29.65,North,360,11.0,12.0,49,0.00,,,0.01,Wunderground v.1.15,2013-02-28 18:02:00,
2013-02-28 13:04:00,45.7,27.6,29.65,North,360,11.0,12.0,49,0.00,,,0.01,Wunderground v.1.15,2013-02-28 18:04:00,
2013-02-28 13:06:00,45.6,27.5,29.65,North,360,11.0,12.0,49,0.00,,,0.01,Wunderground v.1.15,2013-02-28 18:06:00,
2013-02-28 13:08:00,45.8,28.2,29.65,North,360,11.0,12.0,50,0.00,,,0.01,Wunderground v.1.15,2013-02-28 18:08:00,
2013-02-28 13:12:00,45.4,27.8,29.65,North,360,11.0,17.0,50,0.00,,,0.01,Wunderground v.1.15,2013-02-28 18:12:00,
2013-02-28 13:14:00,45.2,27.6,29.64,North,360,11.0,22.0,50,0.00,,,0.01,Wunderground v.1.15,2013-02-28 18:14:00,
2013-02-28 13:16:00,45.1,28.0,29.65,North,360,13.0,22.0,51,0.00,,,0.01,Wunderground v.1.15,2013-02-28 18:16:00,
2013-02-28 13:18:00,44.8,28.2,29.65,North,360,14.0,22.0,52,0.00,,,0.01,Wunderground v.1.15,2013-02-28 18:18:00,
2013-02-28 13:22:00,44.8,28.2,29.64,North,360,13.0,14.0,52,0.00,,,0.01,Wunderground v.1.15,2013-02-28 18:22:00,
2013-02-28 13:24:00,45.0,28.4,29.65,North,360,12.0,14.0,52,0.00,,,0.01,Wunderground v.1.15,2013-02-28 18:24:00,
2013-02-28 13:28:00,45.2,28.6,29.64,North,360,10.0,14.0,52,0.00,,,0.01,Wunderground v.1.15,2013-02-28 18:28:00,
2013-02-28 13:30:00,45.1,28.5,29.64,North,360,11.0,11.0,52,0.00,,,0.01,Wunderground v.1.15,2013-02-28 18:30:00,
2013-02-28 13:34:00,45.3,29.2,29.64,North,360,12.0,12.0,53,0.00,,,0.01,Wunderground v.1.15,2013-02-28 18:34:00,
2013-02-28 13:36:00,45.7,29.5,29.65,North,360,11.0,12.0,53,0.00,,,0.01,Wunderground v.1.15,2013-02-28 18:36:00,
2013-02-28 13:40:00,45.2,29.1,29.64,North,360,11.0,11.0,53,0.00,,,0.01,Wunderground v.1.15,2013-02-28 18:40:00,
2013-02-28 13:42:00,45.0,28.9,29.65,North,360,11.0,11.0,53,0.00,,,0.01,Wunderground v.1.15,2013-02-28 18:42:00,
2013-02-28 13:46:00,45.2,29.5,29.65,North,360,11.0,12.0,54,0.00,,,0.01,Wunderground v.1.15,2013-02-28 18:46:00,
2013-02-28 13:48:00,45.5,29.8,29.65,North,360,11.0,14.0,54,0.00,,,0.01,Wunderground v.1.15,2013-02-28 18:48:00,
2013-02-28 13:50:00,45.5,29.3,29.64,North,360,10.0,10.0,53,0.00,,,0.01,Wunderground v.1.15,2013-02-28 18:50:00,
2013-02-28 13:52:00,45.5,29.8,29.65,North,360,10.0,16.0,54,0.00,,,0.01,Wunderground v.1.15,2013-02-28 18:52:00,
2013-02-28 13:54:00,45.1,29.9,29.65,North,360,10.0,16.0,55,0.00,,,0.01,Wunderground v.1.15,2013-02-28 18:54:00,
2013-02-28 13:56:00,45.0,29.8,29.65,North,360,11.0,16.0,55,0.00,,,0.01,Wunderground v.1.15,2013-02-28 18:56:00,
2013-02-28 13:58:00,45.1,29.9,29.65,North,360,11.0,16.0,55,0.00,,,0.01,Wunderground v.1.15,2013-02-28 18:58:00,
2013-02-28 14:00:00,45.1,30.3,29.65,North,360,10.0,11.0,56,0.00,,,0.01,Wunderground v.1.15,2013-02-28 19:00:00,
2013-02-28 14:02:00,44.7,30.4,29.65,North,360,12.0,12.0,57,0.00,,,0.01,Wunderground v.1.15,2013-02-28 19:02:00,
2013-02-28 14:04:00,44.5,30.6,29.65,North,360,12.0,12.0,58,0.00,,,0.01,Wunderground v.1.15,2013-02-28 19:04:00,
2013-02-28 14:06:00,44.5,31.1,29.65,North,360,12.0,14.0,59,0.00,,,0.01,Wunderground v.1.15,2013-02-28 19:06:00,
2013-02-28 14:10:00,44.5,31.1,29.65,North,360,13.0,17.0,59,0.00,,,0.01,Wunderground v.1.15,2013-02-28 19:10:00,
2013-02-28 14:12:00,44.5,31.5,29.65,North,360,13.0,17.0,60,0.00,,,0.01,Wunderground v.1.15,2013-02-28 19:12:00,
2013-02-28 14:14:00,44.4,31.4,29.65,North,360,13.0,17.0,60,0.00,,,0.01,Wunderground v.1.15,2013-02-28 19:14:00,
2013-02-28 14:18:00,44.5,30.6,29.65,North,360,13.0,17.0,58,0.00,,,0.01,Wunderground v.1.15,2013-02-28 19:18:00,
2013-02-28 14:20:00,44.4,30.5,29.65,North,360,14.0,14.0,58,0.00,,,0.01,Wunderground v.1.15,2013-02-28 19:20:00,
2013-02-28 14:24:00,44.6,30.7,29.65,North,360,13.0,14.0,58,0.00,,,0.01,Wunderground v.1.15,2013-02-28 19:24:00,
2013-02-28 14:26:00,44.5,29.8,29.65,North,360,14.0,16.0,56,0.00,,,0.01,Wunderground v.1.15,2013-02-28 19:26:00,
2013-02-28 14:28:00,44.3,30.0,29.65,North,360,14.0,21.0,57,0.00,,,0.01,Wunderground v.1.15,2013-02-28 19:28:00,
2013-02-28 14:32:00,44.2,29.9,29.65,North,360,15.0,15.0,57,0.00,,,0.01,Wunderground v.1.15,2013-02-28 19:32:00,
2013-02-28 14:34:00,44.3,29.6,29.65,North,360,15.0,15.0,56,0.00,,,0.01,Wunderground v.1.15,2013-02-28 19:34:00,
2013-02-28 14:36:00,44.4,29.2,29.65,North,360,14.0,16.0,55,0.00,,,0.01,Wunderground v.1.15,2013-02-28 19:36:00,
2013-02-28 14:42:00,44.9,30.6,29.65,North,360,13.0,16.0,57,0.00,,,0.01,Wunderground v.1.15,2013-02-28 19:42:00,
2013-02-28 14:44:00,45.1,30.8,29.65,North,360,13.0,20.0,57,0.00,,,0.01,Wunderground v.1.15,2013-02-28 19:44:00,
2013-02-28 14:46:00,45.1,30.8,29.65,North,360,13.0,20.0,57,0.00,,,0.01,Wunderground v.1.15,2013-02-28 19:46:00,
2013-02-28 14:48:00,44.7,31.2,29.65,North,360,14.0,20.0,59,0.00,,,0.01,Wunderground v.1.15,2013-02-28 19:48:00,
2013-02-28 14:50:00,44.3,31.3,29.65,North,360,15.0,15.0,60,0.00,,,0.01,Wunderground v.1.15,2013-02-28 19:50:00,
2013-02-28 14:52:00,43.8,31.6,29.65,North,360,15.0,15.0,62,0.00,,,0.01,Wunderground v.1.15,2013-02-28 19:52:00,
2013-02-28 14:56:00,43.8,31.2,29.65,North,360,13.0,15.0,61,0.00,,,0.01,Wunderground v.1.15,2013-02-28 19:56:00,
2013-02-28 15:00:00,44.2,31.6,29.65,North,360,10.0,10.0,61,0.00,,,0.01,Wunderground v.1.15,2013-02-28 20:00:00,
2013-02-28 15:02:00,44.2,30.8,29.65,North,360,9.0,10.0,59,0.00,,,0.01,Wunderground v.1.15,2013-02-28 20:02:00,
2013-02-28 15:04:00,44.5,31.1,29.64,North,360,9.0,10.0,59,0.00,,,0.01,Wunderground v.1.15,2013-02-28 20:04:00,
2013-02-28 15:08:00,44.7,30.4,29.65,North,360,10.0,14.0,57,0.00,,,0.01,Wunderground v.1.15,2013-02-28 20:08:00,
2013-02-28 15:10:00,44.6,29.9,29.65,North,360,11.0,22.0,56,0.00,,,0.01,Wunderground v.1.15,2013-02-28 20:10:00,
2013-02-28 15:12:00,44.6,30.3,29.65,North,360,12.0,22.0,57,0.00,,,0.01,Wunderground v.1.15,2013-02-28 20:12:00,
2013-02-28 15:14:00,44.5,30.6,29.64,North,360,13.0,22.0,58,0.00,,,0.01,Wunderground v.1.15,2013-02-28 20:14:00,
2013-02-28 15:16:00,44.5,30.2,29.64,North,360,15.0,22.0,57,0.00,,,0.01,Wunderground v.1.15,2013-02-28 20:16:00,
2013-02-28 15:18:00,44.3,30.0,29.65,North,360,15.0,22.0,57,0.00,,,0.01,Wunderground v.1.15,2013-02-28 20:18:00,
2013-02-28 15:22:00,44.6,30.3,29.65,North,360,16.0,19.0,57,0.00,,,0.01,Wunderground v.1.15,2013-02-28 20:22:00,
2013-02-28 15:24:00,44.5,30.2,29.65,North,360,16.0,19.0,57,0.00,,,0.01,Wunderground v.1.15,2013-02-28 20:24:00,
2013-02-28 15:28:00,44.6,30.3,29.65,North,360,14.0,19.0,57,0.00,,,0.01,Wunderground v.1.15,2013-02-28 20:28:00,
2013-02-28 15:30:00,44.6,29.9,29.65,North,360,14.0,14.0,56,0.00,,,0.01,Wunderground v.1.15,2013-02-28 20:30:00,
2013-02-28 15:32:00,44.7,30.0,29.65,North,360,14.0,14.0,56,0.00,,,0.01,Wunderground v.1.15,2013-02-28 20:32:00,
2013-02-28 15:34:00,45.0,30.2,29.65,North,360,13.0,17.0,56,0.00,,,0.01,Wunderground v.1.15,2013-02-28 20:34:00,
2013-02-28 15:36:00,45.0,29.8,29.65,North,360,13.0,19.0,55,0.00,,,0.01,Wunderground v.1.15,2013-02-28 20:36:00,
2013-02-28 15:38:00,45.0,29.8,29.65,North,360,13.0,19.0,55,0.00,,,0.01,Wunderground v.1.15,2013-02-28 20:38:00,
2013-02-28 15:40:00,45.1,29.4,29.65,North,360,13.0,13.0,54,0.00,,,0.01,Wunderground v.1.15,2013-02-28 20:40:00,
2013-02-28 15:42:00,45.2,29.5,29.65,North,360,13.0,13.0,54,0.00,,,0.01,Wunderground v.1.15,2013-02-28 20:42:00,
2013-02-28 15:44:00,45.1,29.9,29.65,North,360,13.0,13.0,55,0.00,,,0.01,Wunderground v.1.15,2013-02-28 20:44:00,
2013-02-28 15:46:00,45.0,29.8,29.65,North,360,12.0,13.0,55,0.00,,,0.01,Wunderground v.1.15,2013-02-28 20:46:00,
2013-02-28 15:48:00,45.0,29.8,29.65,North,360,11.0,13.0,55,0.00,,,0.01,Wunderground v.1.15,2013-02-28 20:48:00,
2013-02-28 15:52:00,45.0,29.8,29.65,North,360,10.0,11.0,55,0.00,,,0.01,Wunderground v.1.15,2013-02-28 20:52:00,
2013-02-28 15:54:00,45.0,30.2,29.65,North,360,9.0,13.0,56,0.00,,,0.01,Wunderground v.1.15,2013-02-28 20:54:00,
2013-02-28 15:56:00,45.0,30.2,29.65,North,360,10.0,16.0,56,0.00,,,0.01,Wunderground v.1.15,2013-02-28 20:56:00,
2013-02-28 16:02:00,44.5,30.2,29.65,North,360,11.0,16.0,57,0.00,,,0.01,Wunderground v.1.15,2013-02-28 21:02:00,
2013-02-28 16:06:00,44.5,30.2,29.65,North,360,12.0,16.0,57,0.00,,,0.01,Wunderground v.1.15,2013-02-28 21:06:00,
2013-02-28 16:08:00,44.6,30.7,29.66,North,360,11.0,16.0,58,0.00,,,0.01,Wunderground v.1.15,2013-02-28 21:08:00,
2013-02-28 16:12:00,44.8,30.9,29.65,North,360,10.0,10.0,58,0.00,,,0.01,Wunderground v.1.15,2013-02-28 21:12:00,
2013-02-28 16:14:00,44.7,30.4,29.65,North,360,9.0,10.0,57,0.00,,,0.01,Wunderground v.1.15,2013-02-28 21:14:00,
2013-02-28 16:18:00,44.9,30.6,29.65,North,360,7.0,10.0,57,0.00,,,0.01,Wunderground v.1.15,2013-02-28 21:18:00,
2013-02-28 16:22:00,45.0,30.7,29.65,North,360,6.0,7.0,57,0.00,,,0.01,Wunderground v.1.15,2013-02-28 21:22:00,
2013-02-28 16:24:00,45.2,30.9,29.65,North,360,6.0,7.0,57,0.00,,,0.01,Wunderground v.1.15,2013-02-28 21:24:00,
2013-02-28 16:28:00,45.7,30.9,29.65,North,360,6.0,9.0,56,0.00,,,0.01,Wunderground v.1.15,2013-02-28 21:28:00,
2013-02-28 16:30:00,45.7,30.9,29.65,North,360,6.0,6.0,56,0.00,,,0.01,Wunderground v.1.15,2013-02-28 21:30:00,
2013-02-28 16:34:00,45.7,30.9,29.65,North,360,6.0,6.0,56,0.00,,,0.01,Wunderground v.1.15,2013-02-28 21:34:00,
2013-02-28 16:36:00,45.6,30.3,29.65,North,360,6.0,7.0,55,0.00,,,0.01,Wunderground v.1.15,2013-02-28 21:36:00,
2013-02-28 16:40:00,45.3,30.5,29.65,North,360,5.0,9.0,56,0.00,,,0.01,Wunderground v.1.15,2013-02-28 21:40:00,
2013-02-28 16:44:00,45.1,30.8,29.65,North,360,5.0,9.0,57,0.00,,,0.01,Wunderground v.1.15,2013-02-28 21:44:00,
2013-02-28 16:46:00,45.1,30.3,29.65,North,360,5.0,9.0,56,0.00,,,0.01,Wunderground v.1.15,2013-02-28 21:46:00,
2013-02-28 16:48:00,44.9,30.1,29.65,North,360,6.0,9.0,56,0.00,,,0.01,Wunderground v.1.15,2013-02-28 21:48:00,
2013-02-28 16:52:00,44.5,29.8,29.65,North,360,7.0,14.0,56,0.00,,,0.01,Wunderground v.1.15,2013-02-28 21:52:00,
2013-02-28 16:54:00,44.4,30.1,29.65,North,360,9.0,14.0,57,0.00,,,0.01,Wunderground v.1.15,2013-02-28 21:54:00,
2013-02-28 16:56:00,44.4,30.1,29.65,North,360,9.0,14.0,57,0.00,,,0.01,Wunderground v.1.15,2013-02-28 21:56:00,
2013-02-28 17:00:00,44.5,29.8,29.65,North,360,9.0,9.0,56,0.00,,,0.01,Wunderground v.1.15,2013-02-28 22:00:00,
2013-02-28 17:02:00,44.5,29.8,29.65,North,360,9.0,9.0,56,0.00,,,0.01,Wunderground v.1.15,2013-02-28 22:02:00,
2013-02-28 17:04:00,44.4,30.1,29.65,North,360,8.0,9.0,57,0.00,,,0.01,Wunderground v.1.15,2013-02-28 22:04:00,
2013-02-28 17:08:00,44.3,30.0,29.65,North,360,8.0,10.0,57,0.00,,,0.01,Wunderground v.1.15,2013-02-28 22:08:00,
2013-02-28 17:14:00,44.3,29.6,29.65,North,360,8.0,11.0,56,0.00,,,0.01,Wunderground v.1.15,2013-02-28 22:14:00,
2013-02-28 17:16:00,44.3,30.0,29.65,North,360,8.0,11.0,57,0.00,,,0.01,Wunderground v.1.15,2013-02-28 22:16:00,
2013-02-28 17:18:00,44.3,29.6,29.65,North,360,9.0,13.0,56,0.00,,,0.01,Wunderground v.1.15,2013-02-28 22:18:00,
2013-02-28 17:20:00,44.3,29.6,29.66,North,360,9.0,9.0,56,0.00,,,0.01,Wunderground v.1.15,2013-02-28 22:20:00,
2013-02-28 17:24:00,44.4,29.7,29.66,North,360,8.0,15.0,56,0.00,,,0.01,Wunderground v.1.15,2013-02-28 22:24:00,
2013-02-28 17:26:00,44.5,29.8,29.65,North,360,9.0,15.0,56,0.00,,,0.01,Wunderground v.1.15,2013-02-28 22:26:00,
2013-02-28 17:28:00,44.5,29.3,29.66,North,360,9.0,15.0,55,0.00,,,0.01,Wunderground v.1.15,2013-02-28 22:28:00,
2013-02-28 17:30:00,44.5,29.8,29.66,North,360,9.0,12.0,56,0.00,,,0.01,Wunderground v.1.15,2013-02-28 22:30:00,
2013-02-28 17:32:00,44.5,29.8,29.66,North,360,10.0,12.0,56,0.00,,,0.01,Wunderground v.1.15,2013-02-28 22:32:00,
2013-02-28 17:36:00,44.5,29.3,29.66,North,360,10.0,12.0,55,0.00,,,0.01,Wunderground v.1.15,2013-02-28 22:36:00,
2013-02-28 17:38:00,44.5,29.3,29.66,North,360,10.0,12.0,55,0.00,,,0.01,Wunderground v.1.15,2013-02-28 22:38:00,
2013-02-28 17:40:00,44.5,29.3,29.66,North,360,10.0,11.0,55,0.00,,,0.01,Wunderground v.1.15,2013-02-28 22:40:00,
2013-02-28 17:44:00,44.7,30.0,29.66,North,360,9.0,11.0,56,0.00,,,0.01,Wunderground v.1.15,2013-02-28 22:44:00,
2013-02-28 17:48:00,44.8,29.2,29.67,North,360,8.0,13.0,54,0.00,,,0.01,Wunderground v.1.15,2013-02-28 22:48:00,
2013-02-28 17:54:00,44.8,28.7,29.67,North,360,10.0,17.0,53,0.00,,,0.01,Wunderground v.1.15,2013-02-28 22:54:00,
2013-02-28 17:56:00,44.7,28.6,29.67,North,360,12.0,17.0,53,0.00,,,0.01,Wunderground v.1.15,2013-02-28 22:56:00,
2013-02-28 17:58:00,44.7,28.6,29.67,North,360,12.0,17.0,53,0.00,,,0.01,Wunderground v.1.15,2013-02-28 22:58:00,
2013-02-28 18:02:00,44.5,28.4,29.67,North,360,15.0,23.0,53,0.00,,,0.01,Wunderground v.1.15,2013-02-28 23:02:00,
2013-02-28 18:04:00,44.5,28.9,29.68,North,360,15.0,23.0,54,0.00,,,0.01,Wunderground v.1.15,2013-02-28 23:04:00,
2013-02-28 18:06:00,44.5,28.9,29.67,North,360,15.0,23.0,54,0.00,,,0.01,Wunderground v.1.15,2013-02-28 23:06:00,
2013-02-28 18:08:00,44.5,28.4,29.67,North,360,16.0,23.0,53,0.00,,,0.01,Wunderground v.1.15,2013-02-28 23:08:00,
2013-02-28 18:10:00,44.3,28.7,29.68,North,360,16.0,17.0,54,0.00,,,0.01,Wunderground v.1.15,2013-02-28 23:10:00,
2013-02-28 18:14:00,44.1,28.5,29.68,North,360,15.0,19.0,54,0.00,,,0.01,Wunderground v.1.15,2013-02-28 23:14:00,
2013-02-28 18:16:00,44.1,28.9,29.68,North,360,16.0,19.0,55,0.00,,,0.01,Wunderground v.1.15,2013-02-28 23:16:00,
2013-02-28 18:20:00,44.3,29.1,29.68,North,360,14.0,14.0,55,0.00,,,0.01,Wunderground v.1.15,2013-02-28 23:20:00,
2013-02-28 18:24:00,44.2,29.0,29.69,North,360,11.0,18.0,55,0.00,,,0.01,Wunderground v.1.15,2013-02-28 23:24:00,
2013-02-28 18:30:00,44.1,28.9,29.69,North,360,10.0,15.0,55,0.00,,,0.01,Wunderground v.1.15,2013-02-28 23:30:00,
2013-02-28 18:32:00,44.0,29.3,29.69,North,360,11.0,15.0,56,0.00,,,0.01,Wunderground v.1.15,2013-02-28 23:32:00,
2013-02-28 18:34:00,43.9,29.2,29.69,North,360,11.0,15.0,56,0.00,,,0.01,Wunderground v.1.15,2013-02-28 23:34:00,
2013-02-28 18:38:00,44.0,29.7,29.69,North,360,9.0,15.0,57,0.00,,,0.01,Wunderground v.1.15,2013-02-28 23:38:00,
2013-02-28 18:44:00,44.0,29.7,29.69,North,360,7.0,12.0,57,0.00,,,0.01,Wunderground v.1.15,2013-02-28 23:44:00,
2013-02-28 18:50:00,43.8,29.5,29.69,North,360,9.0,14.0,57,0.00,,,0.01,Wunderground v.1.15,2013-02-28 23:50:00,
2013-02-28 18:52:00,43.8,29.5,29.70,North,360,9.0,14.0,57,0.00,,,0.01,Wunderground v.1.15,2013-02-28 23:52:00,
2013-02-28 18:54:00,43.8,30.0,29.70,North,360,9.0,14.0,58,0.00,,,0.01,Wunderground v.1.15,2013-02-28 23:54:00,
2013-02-28 18:56:00,43.8,30.0,29.70,North,360,9.0,14.0,58,0.00,,,0.01,Wunderground v.1.15,2013-02-28 23:56:00,
2013-02-28 18:58:00,43.7,29.9,29.70,North,360,9.0,14.0,58,0.00,,,0.01,Wunderground v.1.15,2013-02-28 23:58:00,
2013-02-28 19:00:00,43.6,29.8,29.70,North,360,9.0,11.0,58,0.00,,,0.01,Wunderground v.1.15,2013-03-01 00:00:00,
2013-02-28 19:02:00,43.5,29.7,29.70,North,360,9.0,11.0,58,0.00,,,0.01,Wunderground v.1.15,2013-03-01 00:02:00,
2013-02-28 19:04:00,43.5,29.7,29.70,North,360,9.0,11.0,58,0.00,,,0.01,Wunderground v.1.15,2013-03-01 00:04:00,
2013-02-28 19:06:00,43.4,29.6,29.70,North,360,9.0,14.0,58,0.00,,,0.01,Wunderground v.1.15,2013-03-01 00:06:00,
2013-02-28 19:08:00,43.3,29.5,29.70,North,360,10.0,14.0,58,0.00,,,0.01,Wunderground v.1.15,2013-03-01 00:08:00,
2013-02-28 19:12:00,43.4,30.0,29.70,North,360,10.0,10.0,59,0.00,,,0.01,Wunderground v.1.15,2013-03-01 00:12:00,
2013-02-28 19:16:00,43.5,30.1,29.70,North,360,8.0,10.0,59,0.00,,,0.01,Wunderground v.1.15,2013-03-01 00:16:00,
2013-02-28 19:22:00,43.5,30.1,29.71,North,360,9.0,9.0,59,0.00,,,0.01,Wunderground v.1.15,2013-03-01 00:22:00,
2013-02-28 19:24:00,43.5,30.1,29.70,North,360,9.0,12.0,59,0.00,,,0.01,Wunderground v.1.15,2013-03-01 00:24:00,
2013-02-28 19:28:00,43.4,29.6,29.71,North,360,10.0,17.0,58,0.00,,,0.01,Wunderground v.1.15,2013-03-01 00:28:00,
2013-02-28 19:34:00,43.3,29.9,29.71,North,360,12.0,16.0,59,0.00,,,0.01,Wunderground v.1.15,2013-03-01 00:34:00,
2013-02-28 19:36:00,43.3,29.9,29.71,North,360,12.0,16.0,59,0.00,,,0.01,Wunderground v.1.15,2013-03-01 00:36:00,
2013-02-28 19:40:00,43.3,29.9,29.71,North,360,11.0,11.0,59,0.00,,,0.01,Wunderground v.1.15,2013-03-01 00:40:00,
2013-02-28 19:42:00,43.4,30.0,29.71,North,360,10.0,14.0,59,0.00,,,0.01,Wunderground v.1.15,2013-03-01 00:42:00,
2013-02-28 19:44:00,43.2,29.8,29.71,North,360,11.0,14.0,59,0.00,,,0.01,Wunderground v.1.15,2013-03-01 00:44:00,
2013-02-28 19:46:00,43.2,29.8,29.72,North,360,11.0,14.0,59,0.00,,,0.01,Wunderground v.1.15,2013-03-01 00:46:00,
2013-02-28 19:50:00,43.2,29.8,29.71,North,360,11.0,17.0,59,0.00,,,0.01,Wunderground v.1.15,2013-03-01 00:50:00,
2013-02-28 19:52:00,43.1,29.7,29.71,North,360,12.0,17.0,59,0.00,,,0.01,Wunderground v.1.15,2013-03-01 00:52:00,
2013-02-28 19:56:00,43.2,29.8,29.71,North,360,11.0,17.0,59,0.00,,,0.01,Wunderground v.1.15,2013-03-01 00:56:00,
2013-02-28 19:58:00,43.1,29.7,29.71,North,360,12.0,17.0,59,0.00,,,0.01,Wunderground v.1.15,2013-03-01 00:58:00,
2013-02-28 20:02:00,43.0,29.6,29.71,North,360,13.0,13.0,59,0.00,,,0.01,Wunderground v.1.15,2013-03-01 01:02:00,
2013-02-28 20:04:00,43.1,29.7,29.71,North,360,13.0,13.0,59,0.00,,,0.01,Wunderground v.1.15,2013-03-01 01:04:00,
2013-02-28 20:08:00,43.2,29.8,29.72,North,360,12.0,13.0,59,0.00,,,0.01,Wunderground v.1.15,2013-03-01 01:08:00,
2013-02-28 20:10:00,43.3,29.9,29.72,North,360,11.0,11.0,59,0.00,,,0.01,Wunderground v.1.15,2013-03-01 01:10:00,
2013-02-28 20:12:00,43.3,29.9,29.72,North,360,10.0,11.0,59,0.00,,,0.01,Wunderground v.1.15,2013-03-01 01:12:00,
2013-02-28 20:18:00,43.2,29.8,29.72,North,360,9.0,13.0,59,0.00,,,0.01,Wunderground v.1.15,2013-03-01 01:18:00,
2013-02-28 20:20:00,43.1,29.7,29.72,North,360,10.0,13.0,59,0.00,,,0.01,Wunderground v.1.15,2013-03-01 01:20:00,
2013-02-28 20:24:00,43.1,29.7,29.72,North,360,12.0,14.0,59,0.00,,,0.01,Wunderground v.1.15,2013-03-01 01:24:00,
2013-02-28 20:28:00,43.0,29.6,29.72,North,360,12.0,15.0,59,0.00,,,0.01,Wunderground v.1.15,2013-03-01 01:28:00,
2013-02-28 20:30:00,43.0,29.6,29.72,North,360,12.0,14.0,59,0.00,,,0.01,Wunderground v.1.15,2013-03-01 01:30:00,
2013-02-28 20:32:00,43.0,29.6,29.72,North,360,12.0,14.0,59,0.00,,,0.01,Wunderground v.1.15,2013-03-01 01:32:00,
2013-02-28 20:38:00,43.0,29.6,29.72,North,360,11.0,15.0,59,0.00,,,0.01,Wunderground v.1.15,2013-03-01 01:38:00,
2013-02-28 20:40:00,42.9,29.5,29.72,North,360,11.0,11.0,59,0.00,,,0.01,Wunderground v.1.15,2013-03-01 01:40:00,
2013-02-28 20:44:00,43.0,30.1,29.72,North,360,11.0,11.0,60,0.00,,,0.01,Wunderground v.1.15,2013-03-01 01:44:00,
2013-02-28 20:50:00,43.0,29.6,29.72,North,360,9.0,10.0,59,0.00,,,0.01,Wunderground v.1.15,2013-03-01 01:50:00,
2013-02-28 20:52:00,42.9,29.5,29.73,North,360,9.0,10.0,59,0.00,,,0.01,Wunderground v.1.15,2013-03-01 01:52:00,
2013-02-28 20:54:00,43.0,29.6,29.73,North,360,9.0,10.0,59,0.00,,,0.01,Wunderground v.1.15,2013-03-01 01:54:00,
2013-02-28 20:56:00,42.9,29.5,29.73,North,360,9.0,10.0,59,0.00,,,0.01,Wunderground v.1.15,2013-03-01 01:56:00,
2013-02-28 21:00:00,43.0,29.6,29.73,North,360,10.0,10.0,59,0.00,,,0.01,Wunderground v.1.15,2013-03-01 02:00:00,
2013-02-28 21:02:00,43.1,29.7,29.73,North,360,9.0,14.0,59,0.00,,,0.01,Wunderground v.1.15,2013-03-01 02:02:00,
2013-02-28 21:08:00,43.1,29.7,29.73,North,360,10.0,14.0,59,0.00,,,0.01,Wunderground v.1.15,2013-03-01 02:08:00,
2013-02-28 21:12:00,43.0,29.6,29.73,North,360,11.0,11.0,59,0.00,,,0.01,Wunderground v.1.15,2013-03-01 02:12:00,
2013-02-28 21:18:00,42.9,30.0,29.72,North,360,11.0,13.0,60,0.00,,,0.01,Wunderground v.1.15,2013-03-01 02:18:00,
2013-02-28 21:20:00,42.9,30.0,29.72,North,360,10.0,14.0,60,0.00,,,0.01,Wunderground v.1.15,2013-03-01 02:20:00,
2013-02-28 21:26:00,42.9,30.0,29.72,North,360,11.0,16.0,60,0.00,,,0.01,Wunderground v.1.15,2013-03-01 02:26:00,
2013-02-28 21:28:00,42.9,30.0,29.73,North,360,11.0,16.0,60,0.00,,,0.01,Wunderground v.1.15,2013-03-01 02:28:00,
2013-02-28 21:30:00,42.9,30.0,29.73,North,360,11.0,14.0,60,0.00,,,0.01,Wunderground v.1.15,2013-03-01 02:30:00,
2013-02-28 21:34:00,43.0,29.6,29.73,North,360,11.0,14.0,59,0.00,,,0.01,Wunderground v.1.15,2013-03-01 02:34:00,
2013-02-28 21:36:00,43.0,29.6,29.73,North,360,11.0,14.0,59,0.00,,,0.01,Wunderground v.1.15,2013-03-01 02:36:00,
2013-02-28 21:40:00,43.0,30.1,29.73,North,360,10.0,10.0,60,0.00,,,0.01,Wunderground v.1.15,2013-03-01 02:40:00,
2013-02-28 21:42:00,43.1,30.1,29.73,North,360,10.0,16.0,60,0.00,,,0.01,Wunderground v.1.15,2013-03-01 02:42:00,
2013-02-28 21:46:00,43.0,30.1,29.73,North,360,11.0,16.0,60,0.00,,,0.01,Wunderground v.1.15,2013-03-01 02:46:00,
2013-02-28 21:48:00,42.9,30.0,29.73,North,360,12.0,16.0,60,0.00,,,0.01,Wunderground v.1.15,2013-03-01 02:48:00,
2013-02-28 21:54:00,42.9,30.0,29.73,North,360,12.0,17.0,60,0.00,,,0.01,Wunderground v.1.15,2013-03-01 02:54:00,
2013-02-28 21:58:00,42.9,30.0,29.72,North,360,11.0,17.0,60,0.00,,,0.01,Wunderground v.1.15,2013-03-01 02:58:00,
2013-02-28 22:00:00,42.9,30.0,29.73,North,360,12.0,12.0,60,0.00,,,0.01,Wunderground v.1.15,2013-03-01 03:00:00,
2013-02-28 22:04:00,43.0,30.5,29.72,North,360,10.0,12.0,61,0.00,,,0.01,Wunderground v.1.15,2013-03-01 03:04:00,
2013-02-28 22:06:00,43.1,30.6,29.73,North,360,9.0,12.0,61,0.00,,,0.01,Wunderground v.1.15,2013-03-01 03:06:00,
2013-02-28 22:08:00,43.1,30.6,29.73,North,360,9.0,14.0,61,0.00,,,0.01,Wunderground v.1.15,2013-03-01 03:08:00,
2013-02-28 22:12:00,43.0,30.5,29.72,North,360,10.0,11.0,61,0.00,,,0.01,Wunderground v.1.15,2013-03-01 03:12:00,
2013-02-28 22:14:00,43.0,30.5,29.73,North,360,10.0,11.0,61,0.00,,,0.01,Wunderground v.1.15,2013-03-01 03:14:00,
2013-02-28 22:16:00,43.0,30.5,29.72,North,360,11.0,14.0,61,0.00,,,0.01,Wunderground v.1.15,2013-03-01 03:16:00,
2013-02-28 22:18:00,42.9,30.4,29.72,North,360,12.0,15.0,61,0.00,,,0.01,Wunderground v.1.15,2013-03-01 03:18:00,
2013-02-28 22:22:00,43.1,30.6,29.72,North,360,11.0,11.0,61,0.00,,,0.01,Wunderground v.1.15,2013-03-01 03:22:00,
2013-02-28 22:26:00,43.3,30.7,29.72,North,360,9.0,11.0,61,0.00,,,0.01,Wunderground v.1.15,2013-03-01 03:26:00,
2013-02-28 22:32:00,43.1,31.0,29.72,North,360,10.0,12.0,62,0.00,,,0.01,Wunderground v.1.15,2013-03-01 03:32:00,
2013-02-28 22:34:00,43.1,31.0,29.72,North,360,10.0,12.0,62,0.00,,,0.01,Wunderground v.1.15,2013-03-01 03:34:00,
2013-02-28 22:36:00,43.2,31.1,29.72,North,360,10.0,12.0,62,0.00,,,0.01,Wunderground v.1.15,2013-03-01 03:36:00,
2013-02-28 22:40:00,43.1,31.0,29.72,North,360,9.0,12.0,62,0.00,,,0.01,Wunderground v.1.15,2013-03-01 03:40:00,
2013-02-28 22:42:00,43.0,30.9,29.72,North,360,9.0,12.0,62,0.00,,,0.01,Wunderground v.1.15,2013-03-01 03:42:00,
2013-02-28 22:44:00,42.9,30.8,29.72,North,360,9.0,12.0,62,0.00,,,0.01,Wunderground v.1.15,2013-03-01 03:44:00,
2013-02-28 22:46:00,42.9,30.8,29.72,North,360,9.0,15.0,62,0.00,,,0.01,Wunderground v.1.15,2013-03-01 03:46:00,
2013-02-28 22:48:00,42.9,30.8,29.72,North,360,10.0,15.0,62,0.00,,,0.01,Wunderground v.1.15,2013-03-01 03:48:00,
2013-02-28 22:50:00,42.8,31.1,29.72,North,360,10.0,10.0,63,0.00,,,0.01,Wunderground v.1.15,2013-03-01 03:50:00,
2013-02-28 22:54:00,42.9,30.8,29.72,North,360,9.0,10.0,62,0.00,,,0.01,Wunderground v.1.15,2013-03-01 03:54:00,
2013-02-28 22:56:00,42.9,30.8,29.72,North,360,8.0,10.0,62,0.00,,,0.01,Wunderground v.1.15,2013-03-01 03:56:00,
2013-02-28 22:58:00,42.9,31.2,29.72,North,360,7.0,10.0,63,0.00,,,0.01,Wunderground v.1.15,2013-03-01 03:58:00,
2013-02-28 23:02:00,43.1,31.0,29.71,North,360,6.0,7.0,62,0.00,,,0.01,Wunderground v.1.15,2013-03-01 04:02:00,
2013-02-28 23:04:00,43.0,30.9,29.72,North,360,6.0,10.0,62,0.00,,,0.01,Wunderground v.1.15,2013-03-01 04:04:00,
2013-02-28 23:10:00,42.7,31.0,29.72,North,360,10.0,10.0,63,0.00,,,0.01,Wunderground v.1.15,2013-03-01 04:10:00,
2013-02-28 23:12:00,42.7,31.0,29.72,North,360,11.0,11.0,63,0.00,,,0.01,Wunderground v.1.15,2013-03-01 04:12:00,
2013-02-28 23:14:00,42.8,31.1,29.72,North,360,11.0,11.0,63,0.00,,,0.01,Wunderground v.1.15,2013-03-01 04:14:00,
2013-02-28 23:16:00,42.8,31.1,29.72,North,360,10.0,14.0,63,0.00,,,0.01,Wunderground v.1.15,2013-03-01 04:16:00,
2013-02-28 23:20:00,42.7,31.0,29.72,North,360,9.0,14.0,63,0.00,,,0.01,Wunderground v.1.15,2013-03-01 04:20:00,
2013-02-28 23:22:00,42.7,31.0,29.71,North,360,10.0,14.0,63,0.00,,,0.01,Wunderground v.1.15,2013-03-01 04:22:00,
2013-02-28 23:24:00,42.7,31.0,29.71,North,360,11.0,14.0,63,0.00,,,0.01,Wunderground v.1.15,2013-03-01 04:24:00,
2013-02-28 23:26:00,42.7,31.0,29.71,North,360,11.0,14.0,63,0.00,,,0.01,Wunderground v.1.15,2013-03-01 04:26:00,
2013-02-28 23:28:00,42.7,31.4,29.71,North,360,11.0,14.0,64,0.00,,,0.01,Wunderground v.1.15,2013-03-01 04:28:00,
2013-02-28 23:30:00,42.6,30.9,29.71,North,360,11.0,13.0,63,0.00,,,0.01,Wunderground v.1.15,2013-03-01 04:30:00,
2013-02-28 23:32:00,42.6,31.3,29.72,North,360,11.0,13.0,64,0.00,,,0.01,Wunderground v.1.15,2013-03-01 04:32:00,
2013-02-28 23:34:00,42.7,31.4,29.71,North,360,10.0,15.0,64,0.00,,,0.01,Wunderground v.1.15,2013-03-01 04:34:00,
2013-02-28 23:36:00,42.7,31.4,29.72,North,360,10.0,15.0,64,0.00,,,0.01,Wunderground v.1.15,2013-03-01 04:36:00,
2013-02-28 23:42:00,42.8,31.5,29.72,North,360,9.0,10.0,64,0.00,,,0.01,Wunderground v.1.15,2013-03-01 04:42:00,
2013-02-28 23:44:00,42.9,31.6,29.72,North,360,9.0,10.0,64,0.00,,,0.01,Wunderground v.1.15,2013-03-01 04:44:00,
2013-02-28 23:48:00,43.0,31.6,29.72,North,360,8.0,17.0,64,0.00,,,0.01,Wunderground v.1.15,2013-03-01 04:48:00,
2013-02-28 23:50:00,42.8,31.1,29.72,North,360,8.0,8.0,63,0.00,,,0.01,Wunderground v.1.15,2013-03-01 04:50:00,
2013-02-28 23:52:00,42.8,31.5,29.71,North,360,9.0,9.0,64,0.00,,,0.01,Wunderground v.1.15,2013-03-01 04:52:00,
2013-02-28 23:54:00,42.7,31.4,29.71,North,360,9.0,9.0,64,0.00,,,0.01,Wunderground v.1.15,2013-03-01 04:54:00,